EHI
0 0 0 0 0 0 0 0 0 0 0 0 0 0 0 0 0 0 0 0 0 0 0 0 0 0 0 0 0 0 0 0 0 0 0 0 0 0 0 0 0 0 0
0 0 0 0 0 0 0 0 0 0 0 0 0 0 0 0 0 0 0 0 0 0 0 0 0 0 0 0 0 0 0 0 0 0 0 0 0 0 0 0 0 0 0
0 0 0 0 0 0 0 0 0 0 0 0 0 0 0 0 0 0 0 0 0 0 0 0 0 0 0 0 0 0 0 0 0 0 0 0 0 0 0 0 0 0 0
0 0 0 0 0 0 0 0 0 0 0 0 0 0 0 0 0 0 0 0 0 0 0 0 0 0 0 0 0 0 0 0 0 0 0 0 0 0 0 0 0 0 0
0 0 0 0 0 0 0 0 0 0 0 0 0 0 0 0 0 0 0 0 0 0 0 0 0 0 0 0 0 0 0 0 0 0 0 0 0 0 0 0 0 0 0
0 0 0 0 0 0 0 0 0 0 0 0 0 0 0 0 0 0 0 0 0 0 0 0 0 0 0 0 0 0 0 0 0 0 0 0 0 0 0 0 0 0 0
0 0 0 0 0 0 0 0 0 0 0 0 0 0 0 0 0 0 0 0 0 0 0 0 0 0 0 0 0 0 0 0 0 0 0 0 0 0 0 0 0 0 0
0 0 0 0 0 0 0 0 0 0 0 0 0 0 0 0 0 0 0 0 0 0 0 0 0 0 0 0 0 0 0 0 0 0 0 0 0 0 0 0 0 0 0
0 0 0 0 0 0 0 0 0 0 0 0 0 0 0 0 0 0 0 0 0 0 0 0 0 0 0 0 0 0 0 0 0 0 0 0 0 0 0 0 0 0 0
0 0 0 0 0 0 0 0 0 0 0 0 0 0 0 0 0 0 0 0 0 0 0 0 0 0 0 0 0 0 0 0 0 0 0 0 0 0 0 0 0 0 0
0 0 0 0 0 0 0 0 0 0 0 0 0 0 0 0 0 0 0 0 0 0 0 0 0 0 0 0 0 0 0 0 0 0 0 0 0 0 0 0 0 0 0
0 0 0 0 0 0 0 0 0 0 0 0 0 0 0 0 0 0 0 0 0 0 0 0 0 0 0 0 0 0 0 0 0 0 0 0 0 0 0 0 0 0 0
0 0 0 0 0 0 0 0 0 0 0 0 0 0 0 0 0 0 0 0 0 0 0 0 0 0 0 0 0 0 0 0 0 0 0 0 0 0 0 0 0 0 0
0 0 0 0 0 0 0 0 0 0 0 0 0 0 0 0 0 0 0 0 0 0 0 0 0 0 0 0 0 0 0 0 0 0 0 0 0 0 0 0 0 0 0
0 0 0 0 0 0 0 0 0 0 0 0 0 0 0 0 0 0 0 0 0 0 0 0 0 0 0 0 0 0 0 0 0 0 0 0 0 0 0 0 0 0 0
0 0 0 0 0 0 0 0 0 0 0 0 0 0 0 0 0 0 0 0 0 0 0 0 0 0 0 0 0 0 0 0 0 0 0 0 0 0 0 0 0 0 0
0 0 0 0 0 0 0 0 0 0 0 0 0 0 0 0 0 0 0 0 0 0 0 0 0 0 0 0 0 0 0 0 0 0 0 0 0 0 0 0 0 0 0
0 0 0 0 0 0 0 0 0 0 0 0 0 0 0 0 0 0 0 0 0 0 0 0 0 0 0 0 0 0 0 0 0 0 0 0 0 0 0 0 0 0 0
0 0 0 0 0 0 0 0 0 0 0 0 0 0 0 0 0 0 0 0 0 0 0 0 0 0 0 0 0 0 0 0 0 0 0 0 0 0 0 0 0 0 0
0 0 0 0 0 0 0 0 0 0 0 0 0 0 0 0 0 0 0 0 0 0 0 0 0 0 0 0 0 0 0 0 0 0 0 0 0 0 0 0 0 0 0
0 0 0 0 0 0 0 0 0 0 0 0 0 0 0 0 0 0 0 0 0 0 0 0 0 0 0 0 0 0 0 0 0 0 0 0 0 0 0 0 0 0 0
0 0 0 0 0 0 0 0 0 0 0 0 0 0 0 0 0 0 0 0 0 0 0 0 0 0 0 0 0 0 0 0 0 0 0 0 0 0 0 0 0 0 0
0 0 0 0 0 0 0 0 0 0 0 0 0 0 0 0 0 0 0 0 0 0 0 0 0 0 0 0 0 0 0 0 0 0 0 0 0 0 0 0 0 0 0
0 0 0 0 0 0 0 0 0 0 0 0 0 0 0 0 0 0 0 0 0 0 0 0 0 0 0 0 0 0 0 0 0 0 0 0 0 0 0 0 0 0 0
0 0 0 0 0 0 0 0 0 0 0 0 0 0 0 0 0 0 0 0 0 0 0 0 0 0 0 0 0 0 0 0 0 0 0 0 0 0 0 0 0 0 0
0 0 0 0 0 0 0 0 0 0 0 0 0 0 0 0 0 0 0 0 0 0 0 0 0 0 0 0 0 0 0 0 0 0 0 0 0 0 0 0 0 0 0
Wind_Speed
13 12 12 11 11 11 10 10 9 8 7 7 6 5 5 4 4 4 3 3 4 4 4 5 5 5 4 4 4 5 5 6 8 8 6 7 9 9 8 7 8 8 8
12 12 12 11 11 11 10 9 8 7 7 6 6 5 5 5 4 4 4 5 5 5 5 5 5 5 6 5 5 6 6 6 7 10 8 8 9 9 9 8 10 10 7
12 12 12 11 11 10 9 8 8 8 7 7 6 5 5 4 3 4 5 5 5 5 5 5 5 5 5 4 5 6 6 7 6 8 10 8 8 8 8 9 9 7 10
12 12 11 10 10 9 9 8 8 7 7 6 5 4 4 7 9 9 9 7 5 4 5 5 5 5 4 5 5 6 6 7 7 8 9 9 8 8 7 7 8 7 8
12 12 11 10 10 9 8 8 7 6 6 4 4 4 6 9 10 10 8 8 8 6 5 5 6 7 6 4 6 5 7 7 8 9 9 10 9 8 9 8 9 8 9
11 11 10 10 9 8 7 6 6 5 5 5 5 6 8 8 9 11 8 8 8 7 6 5 7 7 5 5 9 10 11 10 10 10 10 11 11 10 8 8 8 9 6
10 10 9 8 8 6 6 5 4 4 5 5 6 6 8 8 8 7 9 7 8 7 5 5 7 7 6 5 8 12 12 14 14 11 11 11 11 10 9 9 8 9 9
9 8 7 7 6 5 4 4 4 4 4 4 5 5 5 6 5 5 11 8 7 5 5 5 5 5 4 5 9 11 10 10 11 9 7 9 10 9 9 9 9 9 8
8 6 5 5 4 4 4 4 3 3 3 2 4 3 3 5 2 4 8 8 6 6 6 6 5 5 3 6 9 11 11 10 11 12 12 13 14 13 9 6 7 7 6
6 4 4 3 4 4 4 3 3 2 2 2 3 2 2 3 4 1 6 6 6 7 6 6 5 3 6 9 9 10 12 11 11 13 12 11 8 5 6 4 5 6 5
4 4 4 3 4 4 3 2 1 1 2 1 1 1 1 2 4 3 4 5 7 8 7 6 4 4 9 12 11 9 12 12 11 10 9 6 4 4 4 4 3 4 5
4 4 3 2 3 5 2 1 1 1 1 1 1 1 1 2 1 3 5 7 8 8 8 7 7 12 15 16 12 12 15 13 8 7 6 4 4 4 4 5 5 4 4
4 4 3 3 3 2 1 1 0 1 2 1 2 2 2 2 1 2 5 8 10 7 7 10 13 16 15 11 11 13 11 7 6 6 4 4 3 3 4 4 5 5 5
4 4 3 3 3 2 1 0 2 2 3 4 4 4 3 3 5 6 7 7 8 8 8 11 14 14 11 9 9 7 5 5 5 4 3 3 2 2 3 3 3 4 4
3 3 3 3 2 2 1 3 3 5 5 4 5 6 6 5 6 6 6 7 7 8 10 9 7 6 6 6 6 6 6 5 4 2 2 2 2 3 3 3 3 3 4
1 1 2 2 2 2 2 4 8 7 9 8 6 4 4 5 6 8 9 10 12 12 8 7 6 6 7 7 8 8 7 6 3 2 2 2 3 3 3 3 3 3 4
1 1 2 2 1 1 1 3 5 5 4 4 2 2 4 6 7 9 10 12 12 10 5 5 6 6 7 7 7 7 6 5 3 2 2 2 2 2 3 3 3 3 3
2 1 3 3 3 2 2 1 3 5 5 4 3 4 5 6 6 8 10 9 6 5 4 5 6 7 7 7 7 6 5 4 3 2 2 1 1 2 2 2 2 3 3
3 1 1 4 3 2 1 2 4 5 4 3 3 2 3 4 4 6 7 4 5 5 5 5 6 6 7 7 6 5 4 4 4 2 1 1 1 1 2 1 1 1 1
1 2 2 4 3 2 3 4 5 5 4 3 3 3 2 2 3 4 4 4 4 5 6 6 7 7 7 6 5 5 4 5 5 4 3 2 2 2 2 2 1 1 0
2 5 4 3 3 5 4 5 5 4 4 3 3 3 2 2 2 3 4 4 4 5 6 6 7 7 6 5 5 5 6 6 6 6 5 4 4 3 3 4 3 2 0
4 3 3 5 5 5 4 4 4 3 3 3 2 2 2 2 2 3 3 4 4 5 5 6 7 6 6 6 6 6 6 7 7 8 7 6 4 4 5 5 5 4 4
2 3 4 4 4 2 0 3 3 3 3 3 3 2 2 2 2 3 4 4 5 5 5 5 5 6 7 7 6 6 7 7 8 9 9 8 5 5 5 5 6 6 5
4 5 4 4 3 2 3 3 3 4 4 4 4 4 3 3 3 4 4 4 4 5 5 5 6 10 11 9 8 8 7 8 9 8 10 9 6 5 5 5 5 7 6
5 4 4 3 3 3 3 4 5 5 5 5 4 4 5 4 4 4 4 4 5 5 7 6 6 9 13 14 13 11 11 11 9 8 8 7 7 7 6 6 5 6 7
5 4 3 3 3 3 4 5 5 5 5 5 5 5 4 4 4 4 4 5 5 5 6 6 10 12 15 12 14 13 12 12 13 12 7 6 6 8 9 5 7 6 7
Wind_Direction
80 84 88 91 93 94 95 98 99 100 102 104 104 102 98 86 64 41 34 34 22 17 359 3 360 343 334 338 325 316 321 328 317 315 318 323 324 312 306 299 296 288 285
83 85 86 86 89 92 93 93 95 97 96 95 91 86 84 75 54 35 22 30 21 11 5 356 346 341 347 332 335 331 326 322 313 312 313 308 303 300 296 296 299 298 302
90 89 88 89 91 92 93 91 88 85 82 80 78 74 67 63 54 38 31 26 18 0 351 344 341 335 328 341 336 320 316 317 315 306 303 300 297 297 299 297 297 298 299
95 94 92 92 93 92 90 86 84 82 80 75 69 64 55 51 44 32 21 0 354 350 340 334 328 326 329 337 319 312 319 320 308 301 298 299 298 298 300 302 302 299 300
95 94 92 90 88 87 85 83 80 77 77 68 62 59 63 64 44 32 5 353 348 335 328 330 326 318 305 289 296 310 307 301 302 298 299 301 301 306 305 304 300 300 292
91 93 92 91 90 87 85 83 78 70 60 52 49 56 61 69 60 41 12 344 327 317 323 332 317 313 344 290 283 291 287 289 293 295 296 296 299 301 302 302 301 301 298
90 92 93 94 90 86 88 86 79 70 65 55 51 64 86 82 59 30 2 325 304 305 318 317 316 322 331 342 326 312 301 293 284 282 289 296 302 305 306 306 303 304 301
93 94 95 97 96 93 87 77 69 64 66 69 63 60 91 97 64 17 345 317 303 308 311 305 307 312 8 350 323 310 301 301 298 297 295 301 304 305 305 302 298 296 293
99 100 103 105 105 101 92 84 74 70 63 69 79 61 82 125 103 18 354 322 321 332 321 315 316 316 19 336 317 309 307 306 308 316 315 304 299 299 305 306 301 299 302
106 106 106 102 98 89 77 73 75 68 52 50 68 45 33 116 140 26 344 330 335 329 316 314 324 321 321 314 313 309 305 307 314 315 312 309 308 316 327 311 308 309 312
125 123 117 115 110 95 83 73 55 44 47 20 9 8 52 92 163 212 292 324 333 325 319 321 321 313 311 308 304 291 286 298 305 301 300 303 315 328 324 315 307 309 310
135 124 116 117 118 106 103 93 39 351 317 314 335 344 44 102 118 206 256 285 297 308 311 317 321 320 311 305 300 287 290 298 293 295 302 313 325 325 323 319 312 300 284
142 134 120 98 85 108 168 198 198 5 343 351 5 7 17 36 69 270 279 286 289 294 306 313 310 303 302 298 293 296 296 289 290 299 311 315 313 315 319 319 318 317 311
150 151 153 155 174 180 245 342 46 24 16 4 14 12 12 30 27 4 346 335 336 331 335 320 310 300 295 289 295 298 287 283 290 298 306 306 313 326 325 325 324 331 334
158 177 186 185 191 203 176 52 52 66 61 29 16 6 8 10 15 344 331 329 329 320 321 308 311 323 331 332 328 323 321 322 322 332 340 335 341 344 338 334 331 335 346
161 207 233 213 213 242 164 123 68 103 108 90 68 28 37 35 341 332 326 317 309 307 311 312 323 332 334 331 328 326 325 328 338 14 23 1 357 356 352 352 357 357 358
342 326 311 308 288 266 249 163 147 120 106 108 86 354 337 329 325 326 327 324 313 308 306 316 326 327 325 321 319 319 320 328 353 44 45 13 0 357 353 356 1 358 358
305 321 303 305 304 307 322 359 124 151 161 166 195 250 283 305 320 328 331 331 332 337 332 328 324 322 320 317 316 319 327 342 10 48 54 24 356 350 349 342 355 356 355
297 343 304 297 297 327 2 45 71 91 100 110 136 189 256 292 300 319 328 337 336 336 333 326 321 318 316 314 317 328 342 354 10 30 35 26 341 330 333 324 334 314 317
138 84 310 306 338 38 48 66 72 77 80 77 67 42 19 1 350 343 341 338 333 330 326 324 319 315 315 320 329 343 359 5 5 6 358 353 339 320 322 321 319 326 331
123 152 212 286 38 52 53 66 72 67 68 77 79 70 350 335 336 333 333 331 326 321 318 318 316 318 329 337 345 360 16 16 6 355 351 351 352 345 338 338 335 335 264
351 64 66 53 57 50 37 67 73 72 72 84 118 146 238 295 348 336 332 329 319 313 313 314 318 330 346 352 359 12 18 11 358 349 345 344 349 349 347 348 349 355 3
335 67 83 83 94 129 159 79 81 77 75 76 79 83 76 30 13 358 346 335 327 325 322 322 334 356 7 3 8 22 16 359 340 333 338 337 343 350 350 349 354 2 12
52 54 60 68 66 86 86 79 76 77 77 74 69 66 58 44 25 11 351 334 331 330 332 343 4 12 20 18 10 16 11 346 329 324 328 326 344 359 354 354 2 7 11
62 64 62 57 52 66 74 76 72 67 68 69 65 59 57 47 28 9 354 346 348 354 359 7 22 18 14 19 16 6 349 340 338 331 321 326 357 6 358 3 15 19 23
64 64 69 73 66 67 71 76 73 70 68 67 66 63 58 48 28 19 7 360 1 3 3 11 30 31 16 9 5 359 351 347 346 343 337 345 10 16 2 6 23 27 32